EXPRESS-AM5

Last updated on Thu Jul 03 2025 00:02:46 GMT+0000 (Coordinated Universal Time)

1 39487U 13077A 25183.59440214 -.00000273 00000+0 00000+0 0 9998 2 39487 0.0161 2.1509 0000124 233.5443 39.1925 1.00271567 42856
UTC large
Height (km)
Speed (km/s)
/
Latitude / Longitude
Inclination (degrees)
Orbital Period (minutes)
Azimuth
Elevation
Range (km)
Doppler Factor

Next 0 passes for location: London (51.5072 / 0.1276)

Sorry there are no passes over London.